SL-16 DEB, 22339

Orbit data source: Space-Track

SL-16 DEB, 22339 is space debris in LEO originally from a launch on Fri, 25 Dec 1992 UTC launched from the Tyuratam Missile And Space Complex (TTMTR). Debris objects in space refer to the collection of defunct objects orbiting the Earth. Examples of debris include non-operational satellites, rocket bodies, and fragments generated from explosions, collisions, or faulty payload assembly.

Loading next visibility...
Identifier
22339, 1992-093AC
Orbit
LEO
Country
Flag of CISCIS
Related business
Manufacturer
Unknown
Mission
Spacecraft
Bus & Motor
Unknown
Mass
Unknown
Launch date (UTC)
1992-12-25 (33 years ago)
Launch vehicle
Unknown
Launch site
Tyuratam Missile And Space Complex (TTMTR)
Object type
Payload
Rocket body
Debris
Shape & HBR
Unknown shape, 0.3 m
Radar Cross Section
Medium (>0.1 m² and <1 m²)

Expand to show TLE details & history
Last TLE update: 23 hours ago

TLE from 23 hours ago
0 SL-16 DEB
1 22339U 92093AC  25305.41255495  .00000213  00000-0  85466-4 0  9991
2 22339  70.8099 308.3197 0124164 154.0248 206.7189 14.35226275697391
Epoch: 2025-11-01T09:54Z
TLE epoch observation values (Epoch: 2025-11-01T09:54:04.747Z)
Latitude
-0.00003°
Longitude
118.85691°
Altitude
856.282 km
Speed
7.383 km/s
True Right ascension
20h 33m 16s
True Declination
0° 00' 00"
Sunlit
Object was in daylight at epoch
Visualization orbit readout
Latitude
Unknown
Longitude
Unknown
Altitude
Unknown
Speed
Unknown
Apparent Right ascension
Unknown
Apparent Declination
Unknown
Sunlit
N/A
Visualization observer readout
Local Sidereal Time
05:11:02
Azimuth
Unknown
Elevation
Unknown
Doppler factor
Unknown
Orbital elements
Apogee altitude
861.02 km
Perigee altitude
683.456 km
Semi-major axis
7,150.375 km
Eccentricity
0.01242
Inclination
70.8099°
RAAN
308.3197°
Arg. of periapsis
154.0248°
True anomaly
206.08795°
Mean anomaly
206.7189°
Eccentric anomaly
206.40255°
Mean motion
3.58963 °/min
Orbital period
100.29 mins
BSTAR
0.000085466
Loading maneuver chart data...
Computing Atmospheric mass density...
Loading historical data...
Loading historical data...
Loading historical data...
Loading historical data...
Loading historical data...
Loading historical data...
Loading historical data...

Documentation

Showing up to 5 results
|